Hourly Data Report for October 19, 2015

All times are specified in Local Standard Time (LST). Add 1 hour to adjust for Daylight Saving Time where and when it is observed.

CORAL HARBOUR A
NUNAVUT

64°11'36.000" N
83°21'34.000" W
62.20 m
2301002
71915
YZS

Download Data

Hourly Data (October 2015)
Hourly Data Report for October 19, 2015
Temp Definition
°C
Dew Point Temp Definition
°C
Rel Hum Definition
%
Wind Dir Definition
10's deg

Wind Spd Definition
km/h
Visibility Definition
km
Stn Press Definition
kPa
Hmdx Definition


Wind Chill Definition


Weather Definition


TIME
00:00 Legend Double Dagger -4.0 -5.1 92 9 47 9.7 99.05   -13 Snow,Blowing Snow
01:00 Legend Double Dagger -3.8 -5.1 91 9 50 9.7 98.95   -13 Snow,Blowing Snow
02:00 Legend Double Dagger -3.8 -5.1 91 9 53 1.2 98.89   -14 Snow,Blowing Snow
03:00 Legend Double Dagger -3.9 -5.3 90 8 49 1.6 98.84   -13 Snow,Blowing Snow
04:00 Legend Double Dagger -4.0 -5.6 89 8 55 1.6 98.79   -14 Snow,Blowing Snow
05:00 Legend Double Dagger -4.1 -5.7 89 8 52 1.6 98.75   -14 Snow,Blowing Snow
06:00 Legend Double Dagger -4.2 -5.9 88 7 54 4.8 98.68   -14 Snow,Blowing Snow
07:00 Legend Double Dagger -4.3 -5.9 89 7 54 3.2 98.68   -14 Snow,Blowing Snow
08:00 Legend Double Dagger -4.7 -6.4 88 6 52 1.6 98.69   -15 Snow,Blowing Snow
09:00 Legend Double Dagger -4.7 -6.4 88 6 54 1.6 98.67   -15 Snow,Blowing Snow
10:00 Legend Double Dagger -4.6 -6.4 87 6 56 1.6 98.69   -15 Snow,Blowing Snow
11:00 Legend Double Dagger -4.8 -6.6 87 5 62 1.6 98.71   -16 Snow,Blowing Snow
12:00 Legend Double Dagger -5.1 -6.9 87 5 63 1.6 98.73   -16 Snow,Blowing Snow
13:00 Legend Double Dagger -5.2 -7.3 85 5 63 1.6 98.80   -16 Snow,Blowing Snow
14:00 Legend Double Dagger -4.9 -7.2 84 5 55 12.9 98.87   -15 Snow,Blowing Snow
15:00 Legend Double Dagger -4.8 -7.4 82 5 58 12.9 98.93   -15 Snow,Blowing Snow
16:00 Legend Double Dagger -4.9 -6.7 87 4 45 19.3 99.03   -14 Snow,Blowing Snow
17:00 Legend Double Dagger -4.9 -7.4 83 4 41 16.1 99.13   -14 Snow,Blowing Snow
18:00 Legend Double Dagger -5.0 -8.1 79 4 48 19.3 99.25   -15 Snow,Blowing Snow
19:00 Legend Double Dagger -5.2 -8.8 76 3 41 19.3 99.30   -14 Snow,Blowing Snow
20:00 Legend Double Dagger -5.3 -8.4 79 3 44 19.3 99.37   -15 Snow,Blowing Snow
21:00 Legend Double Dagger -5.1 -8.9 75 4 38 4.8 99.45   -14 Snow,Blowing Snow
22:00 Legend Double Dagger -5.3 -8.6 78 3 41 9.7 99.51   -15 Snow,Blowing Snow
23:00 Legend Double Dagger -5.2 -8.6 77 3 44 9.7 99.56   -15 Snow,Blowing Snow

Notes on Data Quality.

Legend

  • E = Estimated
  • M = Missing
  • NA = Not Available
  • ‡ = Partner data that is not subject to review by the National Climate Archives
Date modified: